Torna al catalogo

FENGYUN 1C DEB

AttivoPO
NORAD 29737·DEBRIS·🇨🇳 China

Lanciato May 10, 1999 da Taiyuan Satellite Launch Center

Loading…

Prossimi Passaggi (prossime 24 ore)

TLE

AggiornatoSource: Space-Track

Epoca: Sep 13, 2026, 01:07 UTC

1 29737U 99025AB  26256.04673942 -.00000672  00000-0 -12901-2 0  9991
2 29737  99.5743 171.1365 0694708 265.1553  99.3091 12.66288497903402

Traccia FENGYUN 1C DEB in tempo reale con AllMySat

Download on the App Store